IBB600 GCXO-GCLA

Flight info

Callsign IBB600
Flight time 0h 30m
Altitude 14000
Route ARACO
Aircraft AT76/M-SDFGIRY/S

Departure

Time 2026-05-05 05:57
Airport Tenerife Norte-Ciudad de La Laguna Airport (GCXO)

Arrival

Time 2026-05-05 06:28
Airport La Palma Airport (GCLA)
Time Latitude Longitude Altitude Speed Heading
2026-05-05 05:46 28.48681 -16.34664 2067 ft 0 kts 21°
2026-05-05 05:52 28.48679 -16.34664 2067 ft 2 kts 20°
2026-05-05 05:53 28.48659 -16.34673 2068 ft 4 kts 20°
2026-05-05 05:53 28.48629 -16.34685 2069 ft 5 kts 18°
2026-05-05 05:53 28.48615 -16.34689 2069 ft 1 kts 323°
2026-05-05 05:53 28.48616 -16.34697 2069 ft 4 kts 278°
2026-05-05 05:54 28.48606 -16.34754 2072 ft 13 kts 258°
2026-05-05 05:54 28.48624 -16.34874 2076 ft 20 kts 288°
2026-05-05 05:54 28.48680 -16.35049 2079 ft 23 kts 290°
2026-05-05 05:54 28.48732 -16.35209 2077 ft 20 kts 292°
2026-05-05 05:55 28.48776 -16.35355 2073 ft 19 kts 290°
2026-05-05 05:55 28.48826 -16.35495 2068 ft 19 kts 290°
2026-05-05 05:55 28.48841 -16.35542 2067 ft 0 kts 290°
2026-05-05 05:55 28.48843 -16.35548 2067 ft 5 kts 289°
2026-05-05 05:56 28.48868 -16.35635 2065 ft 14 kts 287°
2026-05-05 05:56 28.48861 -16.35734 2064 ft 11 kts 226°
2026-05-05 05:56 28.48808 -16.35743 2067 ft 10 kts 154°
2026-05-05 05:56 28.48777 -16.35692 2069 ft 7 kts 111°
2026-05-05 05:57 28.48686 -16.35423 2075 ft 63 kts 110°
2026-05-05 05:57 28.48468 -16.34764 2074 ft 113 kts 111°
2026-05-05 05:57 28.48197 -16.33830 2332 ft 126 kts 108°
2026-05-05 05:57 28.47922 -16.32879 2834 ft 127 kts 108°
2026-05-05 05:58 28.47592 -16.31859 3077 ft 151 kts 111°
2026-05-05 05:58 28.47119 -16.30671 3191 ft 176 kts 114°
2026-05-05 05:58 28.46576 -16.29395 3525 ft 181 kts 115°
2026-05-05 05:58 28.46028 -16.28123 3914 ft 183 kts 115°
2026-05-05 05:59 28.45472 -16.26820 4309 ft 184 kts 114°
2026-05-05 05:59 28.45292 -16.25413 4643 ft 184 kts 73°
2026-05-05 05:59 28.46067 -16.24292 4974 ft 186 kts 27°
2026-05-05 05:59 28.47317 -16.23930 5262 ft 188 kts
2026-05-05 06:00 28.48622 -16.23706 5593 ft 190 kts
2026-05-05 06:00 28.49941 -16.23503 5960 ft 192 kts
2026-05-05 06:00 28.51272 -16.23310 6297 ft 194 kts
2026-05-05 06:00 28.52618 -16.23116 6637 ft 195 kts
2026-05-05 06:01 28.53917 -16.23387 6933 ft 190 kts 322°
2026-05-05 06:01 28.54637 -16.24574 7253 ft 183 kts 278°
2026-05-05 06:01 28.54775 -16.25992 7494 ft 184 kts 274°
2026-05-05 06:01 28.54882 -16.27451 7837 ft 184 kts 271°
2026-05-05 06:02 28.54756 -16.28885 8169 ft 183 kts 258°
2026-05-05 06:02 28.54512 -16.30295 8513 ft 182 kts 257°
2026-05-05 06:02 28.54274 -16.31724 8839 ft 183 kts 258°
2026-05-05 06:02 28.54071 -16.33156 9203 ft 183 kts 260°
2026-05-05 06:03 28.53903 -16.34592 9531 ft 183 kts 262°
2026-05-05 06:03 28.53760 -16.36029 9893 ft 183 kts 261°
2026-05-05 06:03 28.53615 -16.37463 10200 ft 182 kts 261°
2026-05-05 06:03 28.53472 -16.38872 10513 ft 181 kts 261°
2026-05-05 06:04 28.53327 -16.40292 10814 ft 181 kts 261°
2026-05-05 06:04 28.53182 -16.41709 11126 ft 180 kts 261°
2026-05-05 06:04 28.53036 -16.43117 11428 ft 179 kts 260°
2026-05-05 06:04 28.52893 -16.44525 11720 ft 179 kts 260°
2026-05-05 06:05 28.52747 -16.45930 12016 ft 178 kts 260°
2026-05-05 06:05 28.52602 -16.47330 12319 ft 177 kts 260°
2026-05-05 06:05 28.52459 -16.48724 12586 ft 177 kts 260°
2026-05-05 06:05 28.52315 -16.50115 12888 ft 177 kts 260°
2026-05-05 06:06 28.52173 -16.51483 13214 ft 176 kts 259°
2026-05-05 06:06 28.52031 -16.52866 13534 ft 176 kts 259°
2026-05-05 06:06 28.51888 -16.54246 13843 ft 175 kts 259°
2026-05-05 06:06 28.51740 -16.55636 13964 ft 179 kts 259°
2026-05-05 06:07 28.51589 -16.57063 14012 ft 185 kts 259°
2026-05-05 06:07 28.51437 -16.58542 14036 ft 191 kts 259°
2026-05-05 06:07 28.51278 -16.60059 14045 ft 196 kts 259°
2026-05-05 06:07 28.51117 -16.61597 14050 ft 200 kts 259°
2026-05-05 06:08 28.50949 -16.63186 14053 ft 204 kts 259°
2026-05-05 06:08 28.50777 -16.64809 14049 ft 207 kts 260°
2026-05-05 06:08 28.50603 -16.66452 14047 ft 210 kts 260°
2026-05-05 06:08 28.50427 -16.68114 14049 ft 212 kts 259°
2026-05-05 06:09 28.50253 -16.69761 14045 ft 213 kts 259°
2026-05-05 06:09 28.50075 -16.71444 14043 ft 215 kts 259°
2026-05-05 06:09 28.49896 -16.73134 14037 ft 216 kts 259°
2026-05-05 06:09 28.49716 -16.74836 14034 ft 217 kts 259°
2026-05-05 06:10 28.49535 -16.76540 14031 ft 217 kts 259°
2026-05-05 06:10 28.49353 -16.78251 14035 ft 218 kts 259°
2026-05-05 06:10 28.49170 -16.79963 14035 ft 218 kts 259°
2026-05-05 06:10 28.48989 -16.81661 14030 ft 219 kts 259°
2026-05-05 06:11 28.48813 -16.83379 14033 ft 219 kts 260°
2026-05-05 06:11 28.48656 -16.85105 14029 ft 219 kts 261°
2026-05-05 06:11 28.48503 -16.86834 14031 ft 219 kts 261°
2026-05-05 06:11 28.48351 -16.88563 14028 ft 220 kts 261°
2026-05-05 06:12 28.48198 -16.90296 14029 ft 220 kts 261°
2026-05-05 06:12 28.48047 -16.92005 14026 ft 220 kts 261°
2026-05-05 06:12 28.47893 -16.93737 14025 ft 220 kts 261°
2026-05-05 06:12 28.47740 -16.95468 14024 ft 220 kts 261°
2026-05-05 06:13 28.47586 -16.97198 14022 ft 220 kts 261°
2026-05-05 06:13 28.47433 -16.98937 14023 ft 220 kts 261°
2026-05-05 06:13 28.47279 -17.00670 14020 ft 220 kts 261°
2026-05-05 06:13 28.47124 -17.02406 14028 ft 221 kts 261°
2026-05-05 06:14 28.46969 -17.04144 14027 ft 221 kts 261°
2026-05-05 06:14 28.46813 -17.05878 14031 ft 221 kts 261°
2026-05-05 06:14 28.46710 -17.07031 14027 ft 221 kts 261°
2026-05-05 06:14 28.46554 -17.08772 14035 ft 221 kts 261°
2026-05-05 06:15 28.46347 -17.11075 14033 ft 221 kts 261°
2026-05-05 06:15 28.46241 -17.12253 14035 ft 221 kts 261°
2026-05-05 06:15 28.46086 -17.13978 14037 ft 222 kts 261°
2026-05-05 06:15 28.45928 -17.15728 14036 ft 223 kts 261°
2026-05-05 06:16 28.45766 -17.17521 13764 ft 234 kts 261°
2026-05-05 06:16 28.45600 -17.19390 13431 ft 238 kts 261°
2026-05-05 06:16 28.45431 -17.21271 13095 ft 240 kts 261°
2026-05-05 06:16 28.45255 -17.23167 12768 ft 243 kts 261°
2026-05-05 06:17 28.45077 -17.25087 12426 ft 245 kts 261°
2026-05-05 06:17 28.44903 -17.26988 12099 ft 246 kts 261°
2026-05-05 06:17 28.44726 -17.28926 11769 ft 247 kts 262°
2026-05-05 06:17 28.44547 -17.30872 11438 ft 248 kts 262°
2026-05-05 06:18 28.44367 -17.32828 11113 ft 249 kts 262°
2026-05-05 06:18 28.44186 -17.34793 10779 ft 250 kts 262°
2026-05-05 06:18 28.44004 -17.36765 10467 ft 251 kts 262°
2026-05-05 06:18 28.43822 -17.38745 10144 ft 253 kts 262°
2026-05-05 06:19 28.43639 -17.40733 9815 ft 254 kts 262°
2026-05-05 06:19 28.43453 -17.42741 9452 ft 255 kts 262°
2026-05-05 06:19 28.43267 -17.44724 9101 ft 256 kts 263°
2026-05-05 06:19 28.43120 -17.46744 8749 ft 257 kts 267°
2026-05-05 06:20 28.43127 -17.48777 8401 ft 258 kts 270°
2026-05-05 06:20 28.43163 -17.50826 8051 ft 259 kts 270°
2026-05-05 06:20 28.43181 -17.52877 7708 ft 260 kts 269°
2026-05-05 06:20 28.43161 -17.54930 7364 ft 260 kts 268°
2026-05-05 06:21 28.43135 -17.56986 7022 ft 259 kts 268°
2026-05-05 06:21 28.43107 -17.59012 6547 ft 247 kts 268°
2026-05-05 06:21 28.43078 -17.60885 6001 ft 240 kts 268°
2026-05-05 06:21 28.43035 -17.62816 5457 ft 248 kts 268°
2026-05-05 06:22 28.42985 -17.64791 4968 ft 251 kts 268°
2026-05-05 06:22 28.42948 -17.66786 4517 ft 252 kts 269°
2026-05-05 06:22 28.42917 -17.68788 4068 ft 253 kts 269°
2026-05-05 06:22 28.42889 -17.70793 3668 ft 253 kts 269°
2026-05-05 06:23 28.42904 -17.72742 3307 ft 244 kts 278°
2026-05-05 06:23 28.43605 -17.74437 3011 ft 238 kts 314°
2026-05-05 06:23 28.45009 -17.75329 2789 ft 231 kts 349°
2026-05-05 06:23 28.46536 -17.75450 2592 ft 206 kts
2026-05-05 06:24 28.47876 -17.75426 2483 ft 179 kts
2026-05-05 06:24 28.49024 -17.75404 2436 ft 153 kts
2026-05-05 06:24 28.50009 -17.75400 2400 ft 133 kts
2026-05-05 06:24 28.50895 -17.75406 2216 ft 123 kts
2026-05-05 06:25 28.51753 -17.75406 2058 ft 123 kts
2026-05-05 06:25 28.52607 -17.75402 1899 ft 122 kts
2026-05-05 06:25 28.53459 -17.75409 1739 ft 122 kts
2026-05-05 06:25 28.54310 -17.75414 1583 ft 123 kts
2026-05-05 06:26 28.55153 -17.75443 1412 ft 123 kts
2026-05-05 06:26 28.56001 -17.75479 1269 ft 118 kts
2026-05-05 06:26 28.56818 -17.75492 1107 ft 115 kts
2026-05-05 06:26 28.57614 -17.75483 942 ft 112 kts
2026-05-05 06:27 28.58394 -17.75488 806 ft 111 kts
2026-05-05 06:27 28.59934 -17.75502 588 ft 112 kts 358°
2026-05-05 06:27 28.60709 -17.75512 421 ft 113 kts 358°
2026-05-05 06:28 28.61503 -17.75534 197 ft 114 kts 354°
2026-05-05 06:28 28.62240 -17.75559 112 ft 90 kts 356°
2026-05-05 06:28 28.62560 -17.75559 106 ft 16 kts
2026-05-05 06:28 28.62622 -17.75531 105 ft 6 kts 90°
2026-05-05 06:29 28.62578 -17.75457 107 ft 12 kts 157°
2026-05-05 06:29 28.62440 -17.75448 108 ft 28 kts 180°
2026-05-05 06:29 28.62268 -17.75445 110 ft 23 kts 178°
2026-05-05 06:29 28.62127 -17.75439 111 ft 18 kts 180°
2026-05-05 06:30 28.62028 -17.75438 111 ft 6 kts 179°
2026-05-05 06:30 28.62008 -17.75405 110 ft 7 kts 87°
2026-05-05 06:30 28.62010 -17.75372 111 ft 3 kts 88°
2026-05-05 06:30 28.62010 -17.75359 111 ft 0 kts 88°
2026-05-05 06:31 28.62010 -17.75352 111 ft 0 kts 88°